RH
78 82 79 73 66 68 65 59 57 66 83 94 97 98 98 98 98 99 97 99 98 94 93 86 77 79 90 82 64 67 89 94 95 98 98 97 98 98 96 91 85 84 92 97 97 97 84 63 64 70 66 62 64 68
71 75 72 68 65 59 53 52 62 71 87 98 98 97 98 98 97 97 97 98 99 99 93 88 84 79 79 71 58 77 76 93 84 98 97 98 96 96 89 90 80 83 78 86 84 76 71 66 65 66 64 66 65 65
58 65 66 60 54 51 51 57 62 69 86 94 97 96 97 97 94 96 99 99 99 98 97 98 90 85 95 92 84 85 87 91 96 91 96 95 95 93 93 87 81 80 76 83 81 77 74 73 69 70 68 67 67 64
52 50 52 53 52 53 55 56 54 62 76 85 91 93 94 96 94 91 93 96 98 96 98 98 93 86 89 94 94 86 76 80 86 90 95 94 91 85 89 87 85 76 75 82 88 84 78 76 74 70 72 68 60 56
51 48 51 55 55 53 53 53 51 52 67 80 90 93 94 97 94 96 97 87 93 91 85 90 89 89 93 97 98 97 88 88 88 94 96 95 89 89 88 81 74 68 76 83 88 86 82 79 78 71 64 60 56 53
48 47 47 47 47 44 46 49 46 43 53 82 91 92 91 96 96 93 98 95 96 89 94 98 98 97 95 97 99 99 99 96 88 88 88 80 72 70 85 92 79 83 85 84 88 89 81 77 70 63 62 60 57 52
44 45 47 45 42 40 40 41 42 41 46 66 79 86 93 97 97 96 97 98 97 93 94 95 93 98 98 98 98 97 97 99 98 98 98 96 91 96 96 87 77 85 87 85 84 82 76 70 72 67 63 61 53 48
46 44 44 45 41 38 38 37 38 38 38 41 64 74 80 88 94 98 97 97 98 96 95 97 95 95 96 96 98 97 95 96 97 97 98 98 97 94 91 78 80 84 85 83 81 77 74 70 69 68 61 54 49 46
46 48 43 43 42 40 37 37 33 31 30 29 29 55 65 78 82 85 93 91 94 92 97 97 97 98 98 96 94 94 91 93 93 97 98 96 94 89 80 82 85 82 81 79 76 74 73 70 65 59 54 49 43 39
38 45 45 43 41 43 41 38 34 29 27 25 21 28 52 63 68 73 80 80 87 95 97 98 98 97 98 97 97 97 97 97 97 98 96 97 91 88 82 80 79 78 76 74 73 72 67 64 58 54 50 42 35 34
38 36 42 45 42 43 42 38 33 31 25 25 28 30 35 46 55 63 78 82 86 96 97 98 98 97 97 95 96 94 93 91 92 96 92 95 88 87 84 79 76 73 72 69 66 64 60 54 52 45 39 39 40 42
40 37 35 40 38 38 38 35 37 36 35 34 40 45 40 38 48 65 82 84 88 96 98 98 97 96 94 89 89 88 90 89 94 91 87 89 87 84 80 76 75 72 68 65 62 59 56 52 47 43 43 45 45 42
36 41 37 37 38 35 31 31 40 38 37 38 47 47 49 53 60 66 80 85 92 93 92 91 92 89 84 82 84 82 85 91 86 86 84 81 82 80 78 75 72 69 67 65 62 58 53 48 47 48 49 47 45 46
34 38 42 39 38 36 32 30 30 31 38 39 49 49 49 57 67 72 73 72 76 82 83 84 84 84 82 81 82 82 87 85 86 85 76 77 77 77 76 76 75 73 69 65 60 54 51 51 50 51 50 53 53 55
39 37 40 44 42 36 35 33 32 31 35 39 51 60 56 56 59 65 70 69 68 66 68 71 75 75 76 76 75 75 77 77 72 69 65 67 68 72 74 75 73 71 68 61 53 51 56 56 57 56 57 60 61 61
46 38 40 47 46 43 37 37 36 37 39 39 46 51 54 56 58 61 64 76 71 72 73 71 72 71 73 69 65 63 64 62 58 55 57 61 66 69 68 69 67 65 64 64 62 60 63 63 60 60 62 60 60 58
46 47 45 50 52 47 42 42 42 45 45 44 44 45 48 49 52 55 63 67 79 74 74 72 71 62 66 66 63 60 61 56 59 60 58 59 64 70 74 76 70 70 73 69 59 65 62 60 65 61 55 51 47 46
41 48 51 55 53 51 46 45 50 50 48 48 49 46 46 46 47 48 52 62 67 73 80 81 78 68 69 64 63 56 59 62 69 68 67 71 80 87 87 84 77 76 67 57 58 66 62 59 59 57 53 54 50 49
36 39 48 58 53 51 58 57 53 54 49 51 50 51 50 48 47 47 51 52 56 62 69 76 81 83 78 78 72 68 65 64 71 71 65 64 72 81 79 77 73 69 64 62 63 62 64 63 60 56 51 51 54 60
38 33 47 55 62 56 65 65 59 55 50 46 51 53 51 50 48 50 53 52 51 51 55 59 67 75 79 76 76 73 76 78 78 78 73 66 62 68 73 73 69 71 70 66 64 62 61 63 62 59 59 63 67 68
33 34 48 57 63 64 67 73 66 60 53 52 52 55 54 55 55 58 58 59 57 54 54 51 51 53 56 63 64 63 64 71 75 78 77 71 68 63 59 61 67 69 67 66 68 70 65 64 66 68 69 71 69 67
32 47 54 67 68 69 70 64 67 62 62 54 59 64 65 62 62 60 62 64 62 58 58 52 50 51 54 52 47 47 52 54 56 61 67 70 72 73 67 60 56 61 70 72 71 71 73 75 73 73 72 72 73 73
33 43 57 66 72 73 73 76 77 69 72 69 61 62 63 62 63 69 70 62 57 59 63 61 58 61 63 64 63 65 65 64 66 67 66 65 68 71 69 69 67 62 59 61 66 71 76 79 81 78 77 77 77 78
33 54 60 64 67 71 74 84 85 72 64 64 65 66 64 62 64 71 71 68 67 69 68 64 64 66 68 70 72 72 71 72 71 73 74 75 74 73 72 70 68 67 65 66 67 71 75 79 82 84 85 86 83 80
51 52 58 65 68 71 76 79 88 90 78 63 61 66 65 65 68 68 63 67 71 71 77 77 77 75 75 77 78 76 73 69 69 71 74 72 72 74 73 72 69 67 66 63 65 71 77 84 88 94 95 92 87 84
62 61 62 61 69 74 81 83 90 91 78 71 68 66 65 67 66 63 58 57 59 64 68 69 72 74 76 78 81 83 83 78 78 76 72 72 77 79 78 76 77 79 80 76 75 76 78 83 87 88 92 97 98 94
74 74 72 68 72 70 81 86 91 94 92 78 74 69 65 61 58 53 55 58 57 62 62 62 61 59 60 62 60 60 58 56 59 63 69 76 81 84 88 89 87 88 89 92 90 84 83 88 91 91 93 98 98 96
79 76 77 78 79 87 89 94 98 96 90 75 70 71 66 59 53 54 55 56 57 56 53 52 50 47 43 39 36 35 37 41 45 54 60 63 71 82 90 98 98 98 97 96 96 96 91 88 90 90 89 94 98 96
73 72 75 82 88 90 95 93 96 96 91 87 84 77 74 66 64 61 59 56 52 49 43 39 36 35 34 33 31 28 25 24 25 33 43 51 59 74 79 88 97 98 98 98 98 97 95 94 91 90 93 92 94 97
85 82 81 88 89 91 94 98 98 95 92 92 93 90 88 82 73 67 63 61 57 51 48 50 51 49 48 46 43 38 32 28 24 24 26 30 40 52 66 79 88 96 97 98 98 98 98 97 96 97 96 96 96 94
97 93 91 90 91 96 98 98 98 98 97 95 96 95 94 94 91 84 73 63 59 61 63 62 60 59 55 50 45 40 37 36 34 35 37 36 34 33 36 50 72 84 97 98 98 98 98 98 98 98 98 98 98 98
98 99 99 98 95 96 95 95 97 97 97 95 92 88 88 86 84 85 85 82 80 76 68 60 57 55 50 47 45 43 43 39 38 39 39 39 39 40 39 40 46 63 90 98 98 98 98 98 98 98 98 98 98 98
99 99 99 99 99 99 98 95 90 93 94 95 95 95 96 96 95 96 96 90 79 70 64 60 56 51 49 48 48 48 48 47 44 42 41 40 39 42 47 50 58 65 80 96 98 98 98 98 98 98 98 98 98 98